Hourly Data Report for September 03, 2017

All times are specified in Local Standard Time (LST). Add 1 hour to adjust for Daylight Saving Time where and when it is observed.

BUCTOUCHE CDA CS
NEW BRUNSWICK

46°25'49.006" N
64°46'05.009" W
35.90 m
8100593
71666
ABT

Download Data

Hourly Data (September 2017)
Hourly Data Report for September 3, 2017
Temp Definition
°C
Dew Point Temp Definition
°C
Rel Hum Definition
%
Wind Dir Definition
10's deg

Wind Spd Definition
km/h
Visibility Definition
km
Stn Press Definition
kPa
Hmdx Definition


Wind Chill Definition


Weather Definition


TIME
00:00 6.1 5.0 92 21 4   101.74     LegendNANA
01:00 6.0 4.8 92 21 3   101.78     LegendNANA
02:00 6.8 5.6 92 20 6   101.78     LegendNANA
03:00 6.0 4.9 93 22 4   101.79     LegendNANA
04:00 5.5 4.8 95 22 6   101.82     LegendNANA
05:00 5.0 4.3 95 21 4   101.83     LegendNANA
06:00 4.2 3.4 95 20 2   101.86     LegendNANA
07:00 8.6 7.8 95 21 3   101.88     LegendNANA
08:00 11.1 8.9 87 22 2   101.90     LegendNANA
09:00 15.2 10.6 74 25 3   101.93     LegendNANA
10:00 18.6 9.4 55 15 7   101.91     LegendNANA
11:00 19.2 9.0 52 15 9   101.82     LegendNANA
12:00 20.3 7.3 43 15 13   101.73     LegendNANA
13:00 19.8 8.1 47 12 11   101.65     LegendNANA
14:00 21.0 7.1 41 16 11   101.60     LegendNANA
15:00 19.8 5.9 40 14 17   101.55     LegendNANA
16:00 19.6 7.1 44 16 17   101.48     LegendNANA
17:00 18.2 7.4 49 17 16   101.44     LegendNANA
18:00 17.2 8.7 57 17 14   101.42     LegendNANA
19:00 15.9 9.8 67 15 12   101.28     LegendNANA
20:00 15.0 9.4 69 15 12   101.22     LegendNANA
21:00 14.5 9.7 73 14 10   101.10     LegendNANA
22:00 14.2 9.7 74 13 14   100.98     LegendNANA
23:00 13.2 10.5 83 13 13   100.85     LegendNANA

Notes on Data Quality.

Legend

  • E = Estimated
  • M = Missing
  • NA = Not Available
  • ‡ = Partner data that is not subject to review by the National Climate Archives
Date modified: